K5NCO Weather Reports


time (UTC)temp
C
wind
direction
speed
KPH
gust
KPH
rain 1hr
cm
rain 24hr
cm
rain mn
cm
humidity
%
barometer
mb
20260906155000 28 229 6.4 6.4 0.00 0.00 0.00 80 1016.8
20260906154455 28 193 3.2 3.2 0.00 0.00 0.00 81 1017.0
20260906153953 28 109 1.6 1.6 0.00 0.00 0.00 81 1016.9
20260906153452 28 113 4.8 4.8 0.00 0.00 0.00 80 1016.8
20260906152947 27 146 3.2 4.8 0.00 0.00 0.00 81 1016.7
20260906152447 27 110 3.2 3.2 0.00 0.00 0.00 83 1016.8
20260906151941 27 128 3.2 3.2 0.00 0.00 0.00 84 1016.7
20260906151437 27 199 0.0 0.0 0.00 0.00 0.00 85 1016.6
20260906150932 27 175 1.6 1.6 0.00 0.00 0.00 85 1016.6
20260906150426 27 121 3.2 3.2 0.00 0.00 0.00 87 1016.6
20260906145921 27 155 3.2 3.2 0.00 0.00 0.00 87 1016.4
20260906145420 27 157 1.6 3.2 0.00 0.00 0.00 88 1016.7
20260906144915 26 117 1.6 3.2 0.00 0.00 0.00 88 1016.5
20260906144409 26 112 1.6 3.2 0.00 0.00 0.00 88 1016.4
20260906143904 26 134 6.4 9.7 0.00 0.00 0.00 87 1016.6
20260906143400 26 108 0.0 1.6 0.00 0.00 0.00 88 1016.4
20260906142856 27 87 3.2 4.8 0.00 0.00 0.00 85 1016.5
20260906142344 27 111 1.6 1.6 0.00 0.00 0.00 84 1016.6
20260906141845 27 142 3.2 4.8 0.00 0.00 0.00 84 1016.6
20260906141339 27 108 3.2 4.8 0.00 0.00 0.00 84 1016.5
20260906140838 27 108 3.2 3.2 0.00 0.00 0.00 84 1016.2
20260906140333 27 64 3.2 3.2 0.00 0.00 0.00 84 1016.2
20260906135831 27 99 4.8 4.8 0.00 0.00 0.00 84 1016.1
20260906135326 27 89 3.2 4.8 0.00 0.00 0.00 83 1016.2
20260906134821 27 83 1.6 3.2 0.00 0.00 0.00 84 1016.1
20260906134316 27 103 3.2 4.8 0.00 0.00 0.00 83 1016.2
20260906133812 27 78 1.6 1.6 0.00 0.00 0.00 84 1016.3
20260906133307 27 95 3.2 4.8 0.00 0.00 0.00 83 1016.4
20260906132802 27 164 1.6 1.6 0.00 0.00 0.00 83 1016.1
20260906132257 27 163 3.2 3.2 0.00 0.00 0.00 83 1016.1
20260906131753 27 112 4.8 4.8 0.00 0.00 0.00 82 1015.8
20260906131247 27 89 1.6 3.2 0.00 0.00 0.00 81 1015.7
20260906130743 28 99 3.2 3.2 0.00 0.00 0.00 79 1015.8
20260906130238 27 185 0.0 0.0 0.00 0.00 0.00 78 1015.8
20260906125737 27 159 0.0 0.0 0.00 0.00 0.00 79 1015.9
20260906125235 27 162 0.0 0.0 0.00 0.00 0.00 81 1015.6
20260906124730 27 150 1.6 1.6 0.00 0.00 0.00 82 1015.6
20260906124226 27 146 1.6 1.6 0.00 0.00 0.00 81 1015.4
20260906123724 27 158 0.0 0.0 0.00 0.00 0.00 82 1015.4
20260906123220 26 175 0.0 0.0 0.00 0.00 0.00 82 1015.2
20260906122719 26 175 0.0 0.0 0.00 0.00 0.00 83 1015.0
20260906122215 26 175 0.0 0.0 0.00 0.00 0.00 84 1015.2
20260906121711 26 175 0.0 0.0 0.00 0.00 0.00 84 1015.0
20260906121207 26 182 0.0 0.0 0.00 0.00 0.00 84 1014.8
20260906120703 26 65 0.0 0.0 0.00 0.00 0.00 84 1014.8
20260906120159 26 54 0.0 0.0 0.00 0.00 0.00 84 1014.7
20260906115654 26 54 0.0 0.0 0.00 0.00 0.00 84 1014.8
20260906115150 26 74 0.0 0.0 0.00 0.00 0.00 83 1014.6
20260906114648 26 92 0.0 0.0 0.00 0.00 0.00 83 1014.6
20260906114144 26 60 0.0 0.0 0.00 0.00 0.00 83 1014.3
20260906113643 26 89 0.0 0.0 0.00 0.00 0.00 83 1014.3
20260906113138 26 195 0.0 0.0 0.00 0.00 0.00 83 1014.4
20260906112637 26 195 0.0 0.0 0.00 0.00 0.00 83 1014.2
20260906112135 26 221 0.0 0.0 0.00 0.00 0.00 83 1013.9
20260906111634 26 222 0.0 0.0 0.00 0.00 0.00 83 1014.2
20260906111129 26 222 0.0 0.0 0.00 0.00 0.00 83 1014.1
20260906110623 26 214 0.0 0.0 0.00 0.00 0.00 83 1014.2
20260906110118 26 198 0.0 0.0 0.00 0.00 0.00 82 1014.2
20260906105613 26 213 0.0 0.0 0.00 0.00 0.00 82 1014.4
20260906105109 26 196 0.0 1.6 0.00 0.00 0.00 82 1014.3
20260906104608 26 201 1.6 1.6 0.00 0.00 0.00 81 1014.4
20260906104102 26 221 3.2 4.8 0.00 0.00 0.00 81 1014.2
20260906103601 26 212 1.6 1.6 0.00 0.00 0.00 81 1014.2
20260906103055 26 181 3.2 3.2 0.00 0.00 0.00 81 1014.2
20260906102549 26 199 3.2 4.8 0.00 0.00 0.00 81 1014.2
20260906102044 27 183 1.6 3.2 0.00 0.00 0.00 81 1014.1
20260906101539 27 182 1.6 1.6 0.00 0.00 0.00 80 1014.0
20260906101034 27 179 3.2 4.8 0.00 0.00 0.00 80 1014.0
20260906100529 27 243 1.6 1.6 0.00 0.00 0.00 80 1014.2
20260906100023 27 210 3.2 3.2 0.00 0.00 0.00 80 1013.9
20260906095518 27 243 3.2 3.2 0.00 0.00 0.00 80 1013.9
20260906095014 27 211 1.6 3.2 0.00 0.00 0.00 79 1014.1
20260906094512 27 198 4.8 6.4 0.00 0.00 0.00 79 1014.1
20260906094008 27 206 6.4 6.4 0.00 0.00 0.00 79 1013.9
20260906093504 27 219 3.2 4.8 0.00 0.00 0.00 79 1014.1
20260906092959 27 231 3.2 4.8 0.00 0.00 0.00 79 1014.0
20260906092459 27 233 3.2 3.2 0.00 0.00 0.00 79 1013.8
20260906091954 27 184 3.2 3.2 0.00 0.00 0.00 79 1013.8
20260906091450 27 230 3.2 4.8 0.00 0.00 0.00 79 1013.8
20260906090947 27 193 4.8 6.4 0.00 0.00 0.00 78 1013.8
20260906090441 27 200 6.4 9.7 0.00 0.00 0.00 78 1013.8
20260906085936 27 203 4.8 4.8 0.00 0.00 0.00 78 1013.8
20260906085435 27 220 3.2 3.2 0.00 0.00 0.00 78 1013.9
20260906084934 27 192 6.4 9.7 0.00 0.00 0.00 78 1013.9
20260906084429 27 190 8.0 11.3 0.00 0.00 0.00 77 1013.9
20260906083928 27 148 1.6 3.2 0.00 0.00 0.00 77 1014.0
20260906083424 27 165 6.4 6.4 0.00 0.00 0.00 77 1014.0
20260906082923 27 210 3.2 3.2 0.00 0.00 0.00 77 1013.9
20260906082419 27 171 6.4 6.4 0.00 0.00 0.00 77 1014.0
20260906081914 27 230 6.4 9.7 0.00 0.00 0.00 77 1013.8
20260906081410 28 230 6.4 6.4 0.00 0.00 0.00 76 1014.0
20260906080906 28 227 1.6 1.6 0.00 0.00 0.00 76 1014.0
20260906080402 28 135 4.8 4.8 0.00 0.00 0.00 76 1014.0
20260906075901 28 176 8.0 11.3 0.00 0.00 0.00 76 1014.1
20260906075356 28 205 4.8 4.8 0.00 0.00 0.00 76 1014.2
20260906074852 28 163 9.7 11.3 0.00 0.00 0.00 75 1014.2
20260906074346 28 170 8.0 12.9 0.00 0.00 0.00 75 1014.2
20260906073845 28 201 3.2 3.2 0.00 0.00 0.00 75 1014.3
20260906073340 28 217 9.7 11.3 0.00 0.00 0.00 75 1014.4
20260906072836 28 187 1.6 3.2 0.00 0.00 0.00 74 1014.4
20260906072332 28 207 3.2 3.2 0.00 0.00 0.00 74 1014.5
20260906071827 28 198 9.7 12.9 0.00 0.00 0.00 74 1014.4
20260906071322 28 176 8.0 9.7 0.00 0.00 0.00 74 1014.6
20260906070818 28 185 3.2 4.8 0.00 0.00 0.00 74 1014.5
20260906070314 28 173 6.4 6.4 0.00 0.00 0.00 74 1014.6
20260906065814 28 188 4.8 4.8 0.00 0.00 0.00 73 1014.7
20260906065309 28 192 6.4 9.7 0.00 0.00 0.00 73 1014.7
20260906064805 28 195 9.7 14.5 0.00 0.00 0.00 74 1014.7
20260906064301 28 114 9.7 12.9 0.00 0.00 0.00 74 1014.9
20260906063801 28 201 3.2 4.8 0.00 0.00 0.00 74 1014.7
20260906063256 28 158 9.7 12.9 0.00 0.00 0.00 74 1014.9
20260906062751 28 144 11.3 14.5 0.00 0.00 0.00 74 1014.9
20260906062250 28 145 11.3 14.5 0.00 0.00 0.00 73 1015.1
20260906061747 28 190 3.2 4.8 0.00 0.00 0.00 74 1015.1
20260906061243 28 119 6.4 6.4 0.00 0.00 0.00 74 1015.1
20260906060738 28 176 9.7 11.3 0.00 0.00 0.00 73 1014.9
20260906060235 28 169 8.0 12.9 0.00 0.00 0.00 74 1015.1
20260906055731 28 185 3.2 4.8 0.00 0.00 0.00 74 1015.2
20260906055226 28 154 3.2 4.8 0.00 0.00 0.00 74 1015.3
20260906054721 28 123 1.6 3.2 0.00 0.00 0.00 74 1014.9
20260906054216 28 206 4.8 4.8 0.00 0.00 0.00 74 1015.0
20260906053713 28 120 6.4 6.4 0.00 0.00 0.00 74 1015.0
20260906053208 28 125 8.0 9.7 0.00 0.00 0.00 74 1014.9
20260906052703 28 147 4.8 6.4 0.00 0.00 0.00 74 1015.1
20260906052200 28 144 4.8 4.8 0.00 0.00 0.00 74 1014.9
20260906051656 28 128 3.2 3.2 0.00 0.00 0.00 74 1015.0
20260906051155 28 139 6.4 9.7 0.00 0.00 0.00 74 1015.1
20260906050651 28 120 1.6 4.8 0.00 0.00 0.00 74 1015.3
20260906050146 28 166 4.8 4.8 0.00 0.00 0.00 74 1015.1
20260906045644 28 117 6.4 6.4 0.00 0.00 0.00 73 1015.3
20260906045140 28 137 4.8 4.8 0.00 0.00 0.00 73 1015.1
20260906044636 28 117 9.7 12.9 0.00 0.00 0.00 73 1015.2
20260906044131 28 126 4.8 4.8 0.00 0.00 0.00 73 1015.1
20260906043627 28 101 1.6 3.2 0.00 0.00 0.00 73 1015.2
20260906043122 28 104 9.7 12.9 0.00 0.00 0.00 72 1015.3
20260906042621 28 134 8.0 9.7 0.00 0.00 0.00 72 1015.1
20260906042115 28 79 8.0 11.3 0.00 0.00 0.00 72 1015.1
20260906041612 28 128 9.7 12.9 0.00 0.00 0.00 71 1015.2
20260906041106 28 95 1.6 3.2 0.00 0.00 0.00 71 1015.0
20260906040602 28 153 6.4 6.4 0.00 0.00 0.00 71 1014.9
20260906040057 28 99 6.4 9.7 0.00 0.00 0.00 71 1015.0
20260906035552 28 100 8.0 9.7 0.00 0.00 0.00 70 1014.9
20260906035048 28 138 8.0 9.7 0.00 0.00 0.00 70 1015.0
20260906034548 28 84 6.4 6.4 0.00 0.00 0.00 69 1015.3
20260906034037 29 104 12.9 12.9 0.00 0.00 0.00 69 1015.0
20260906033532 29 71 1.6 1.6 0.00 0.00 0.00 68 1015.0
20260906033027 29 87 12.9 20.9 0.00 0.00 0.00 68 1015.0
20260906032524 29 90 9.7 12.9 0.00 0.00 0.00 67 1015.0
20260906032019 30 84 8.0 12.9 0.00 0.00 0.00 66 1014.9
20260906031515 30 49 8.0 12.9 0.00 0.00 0.00 65 1014.9
20260906031009 30 127 14.5 16.1 0.00 0.00 0.00 65 1014.7
20260906030503 30 98 9.7 14.5 0.00 0.00 0.00 64 1014.7
20260906030003 30 56 3.2 6.4 0.00 0.00 0.00 64 1014.6
20260906025502 30 105 11.3 17.7 0.00 0.00 0.00 64 1014.5
20260906025001 30 53 8.0 12.9 0.00 0.00 0.00 63 1014.6
20260906024456 30 64 4.8 9.7 0.00 0.00 0.00 63 1014.3
20260906023955 30 93 9.7 12.9 0.00 0.00 0.00 62 1014.2
20260906023453 31 37 6.4 11.3 0.00 0.00 0.00 61 1014.0
20260906022953 31 74 11.3 16.1 0.00 0.00 0.00 60 1013.8
20260906022442 31 83 11.3 16.1 0.00 0.00 0.00 60 1013.7
20260906021937 31 100 11.3 16.1 0.00 0.00 0.00 59 1013.7
20260906021432 31 80 3.2 4.8 0.00 0.00 0.00 58 1013.5
20260906020926 31 117 1.6 3.2 0.00 0.00 0.00 58 1013.5
20260906020421 31 99 6.4 6.4 0.00 0.00 0.00 57 1013.2
20260906015915 31 85 9.7 14.5 0.00 0.00 0.00 57 1013.0
20260906015414 32 89 6.4 9.7 0.00 0.00 0.00 56 1013.1
20260906014909 32 76 14.5 20.9 0.00 0.00 0.00 56 1012.9
20260906014408 32 85 11.3 12.9 0.00 0.00 0.00 56 1012.9
20260906013905 32 83 12.9 20.9 0.00 0.00 0.00 56 1013.0
20260906013400 32 59 16.1 17.7 0.00 0.00 0.00 55 1012.8
20260906012855 32 83 8.0 11.3 0.00 0.00 0.00 55 1012.9
20260906012350 32 67 12.9 20.9 0.00 0.00 0.00 55 1012.6
20260906011850 32 98 8.0 11.3 0.00 0.00 0.00 55 1012.8
20260906011345 32 90 19.3 22.5 0.00 0.00 0.00 54 1012.5
20260906010841 32 40 6.4 11.3 0.00 0.00 0.00 54 1012.7
20260906010336 33 115 8.0 9.7 0.00 0.00 0.00 53 1012.6
20260906005832 33 79 3.2 4.8 0.00 0.00 0.00 53 1012.8
20260906005331 33 127 12.9 17.7 0.00 0.00 0.00 52 1012.6
20260906004830 33 50 19.3 24.1 0.00 0.00 0.00 51 1012.7
20260906004330 33 76 8.0 20.9 0.00 0.00 0.00 51 1012.7
20260906003825 33 105 6.4 9.7 0.00 0.00 0.00 50 1012.7
20260906003320 34 67 6.4 11.3 0.00 0.00 0.00 50 1012.5
20260906002816 34 26 4.8 6.4 0.00 0.00 0.00 50 1012.5
20260906002315 34 90 8.0 12.9 0.00 0.00 0.00 49 1012.4
20260906001812 34 69 9.7 12.9 0.00 0.00 0.00 48 1012.6
20260906001307 34 114 4.8 9.7 0.00 0.00 0.00 49 1012.5
20260906000807 34 54 9.7 12.9 0.00 0.00 0.00 48 1012.3
20260906000303 34 57 17.7 22.5 0.00 0.00 0.00 48 1012.7
20260905235756 35 98 9.7 17.7 0.00 0.00 0.00 47 1012.4
20260905235256 35 73 9.7 14.5 0.00 0.00 0.00 46 1012.5
20260905234752 35 88 11.3 20.9 0.00 0.00 0.00 46 1012.3
20260905234246 35 71 6.4 11.3 0.00 0.00 0.00 46 1012.4
20260905233742 35 103 16.1 17.7 0.00 0.00 0.00 44 1012.1
20260905233242 35 98 9.7 11.3 0.00 0.00 0.00 42 1012.2
20260905232736 35 80 6.4 6.4 0.00 0.00 0.00 42 1012.1
20260905232232 36 97 4.8 9.7 0.00 0.00 0.00 42 1012.1
20260905231728 35 120 9.7 12.9 0.00 0.00 0.00 41 1012.2
20260905231223 35 101 11.3 11.3 0.00 0.00 0.00 42 1012.0
20260905230719 36 97 6.4 6.4 0.00 0.00 0.00 40 1012.1
20260905230217 36 80 1.6 3.2 0.00 0.00 0.00 41 1012.3
20260905225716 35 54 3.2 4.8 0.00 0.00 0.00 43 1012.2
20260905225212 35 89 8.0 9.7 0.00 0.00 0.00 43 1012.3
20260905224711 35 95 3.2 3.2 0.00 0.00 0.00 43 1012.2
20260905224206 36 129 4.8 6.4 0.00 0.00 0.00 41 1012.1
20260905223703 36 344 0.0 0.0 0.00 0.00 0.00 42 1012.2
20260905223159 36 285 3.2 3.2 0.00 0.00 0.00 41 1012.2
20260905222654 36 110 0.0 0.0 0.00 0.00 0.00 41 1012.2
20260905222148 36 56 6.4 9.7 0.00 0.00 0.00 40 1012.4
20260905221644 36 92 1.6 1.6 0.00 0.00 0.00 40 1012.4
20260905221141 36 197 6.4 11.3 0.00 0.00 0.00 41 1012.2
20260905220636 36 96 11.3 12.9 0.00 0.00 0.00 40 1012.5
20260905220132 36 258 0.0 0.0 0.00 0.00 0.00 39 1012.4
20260905215631 36 130 4.8 6.4 0.00 0.00 0.00 40 1012.4
20260905215127 36 131 0.0 0.0 0.00 0.00 0.00 41 1012.5
20260905214623 35 141 0.0 0.0 0.00 0.00 0.00 42 1012.4
20260905214118 35 163 0.0 0.0 0.00 0.00 0.00 41 1012.5
20260905213613 36 83 3.2 4.8 0.00 0.00 0.00 41 1012.4
20260905213108 35 93 6.4 11.3 0.00 0.00 0.00 41 1012.4
20260905212603 35 117 9.7 11.3 0.00 0.00 0.00 42 1012.4
20260905212103 35 59 3.2 6.4 0.00 0.00 0.00 42 1012.6
20260905211558 35 31 3.2 4.8 0.00 0.00 0.00 43 1012.8
20260905211053 36 134 4.8 6.4 0.00 0.00 0.00 43 1012.7
20260905210549 36 111 0.0 0.0 0.00 0.00 0.00 41 1012.8
20260905210044 36 66 0.0 0.0 0.00 0.00 0.00 41 1013.0
20260905205543 36 215 0.0 0.0 0.00 0.00 0.00 40 1012.7
20260905205043 36 120 9.7 11.3 0.00 0.00 0.00 42 1013.0
20260905204538 36 152 6.4 9.7 0.00 0.00 0.00 41 1013.0
20260905204033 36 253 0.0 0.0 0.00 0.00 0.00 41 1013.2
20260905203533 36 33 0.0 1.6 0.00 0.00 0.00 41 1013.4
20260905203028 35 14 4.8 6.4 0.00 0.00 0.00 43 1013.4
20260905202523 35 32 0.0 0.0 0.00 0.00 0.00 45 1013.4
20260905202019 35 68 1.6 4.8 0.00 0.00 0.00 45 1013.6
20260905201514 35 111 6.4 11.3 0.00 0.00 0.00 42 1013.6
20260905201014 35 104 3.2 6.4 0.00 0.00 0.00 42 1013.7
20260905200509 35 69 1.6 4.8 0.00 0.00 0.00 44 1013.7
20260905200008 35 46 4.8 6.4 0.00 0.00 0.00 43 1013.9
20260905195502 35 104 4.8 4.8 0.00 0.00 0.00 44 1014.0
20260905194958 35 221 0.0 0.0 0.00 0.00 0.00 44 1013.9
20260905194452 34 219 4.8 6.4 0.00 0.00 0.00 45 1014.3
20260905193946 35 174 8.0 9.7 0.00 0.00 0.00 45 1014.2
20260905193441 35 111 6.4 11.3 0.00 0.00 0.00 44 1014.3
20260905192936 35 165 6.4 9.7 0.00 0.00 0.00 45 1014.3
20260905192431 34 190 14.5 16.1 0.00 0.00 0.00 46 1014.5
20260905191926 35 135 12.9 16.1 0.00 0.00 0.00 46 1014.5
20260905191425 35 27 1.6 1.6 0.00 0.00 0.00 46 1014.6
20260905190920 35 82 6.4 9.7 0.00 0.00 0.00 46 1014.6
20260905190418 34 229 3.2 3.2 0.00 0.00 0.00 46 1014.9
20260905185917 34 113 6.4 9.7 0.00 0.00 0.00 47 1015.0
20260905185412 34 188 9.7 11.3 0.00 0.00 0.00 46 1015.1
20260905184910 33 308 3.2 3.2 0.00 0.00 0.00 48 1015.3
20260905184405 33 169 12.9 14.5 0.00 0.00 0.00 48 1015.2
20260905183903 34 141 3.2 4.8 0.00 0.00 0.00 49 1015.3
20260905183359 33 96 3.2 6.4 0.00 0.00 0.00 51 1015.4
20260905182853 33 83 11.3 12.9 0.00 0.00 0.00 48 1015.4
20260905182347 33 120 9.7 11.3 0.00 0.00 0.00 51 1015.5
20260905181842 33 165 3.2 4.8 0.00 0.00 0.00 50 1015.7
20260905181337 33 206 9.7 11.3 0.00 0.00 0.00 47 1015.8
20260905180836 33 172 9.7 12.9 0.00 0.00 0.00 50 1015.8
20260905180331 33 84 6.4 6.4 0.00 0.00 0.00 53 1016.0
20260905175825 33 245 4.8 4.8 0.00 0.00 0.00 51 1016.0
20260905175320 32 173 8.0 12.9 0.00 0.00 0.00 52 1016.0
20260905174815 32 189 11.3 12.9 0.00 0.00 0.00 51 1015.9
20260905174311 32 178 8.0 9.7 0.00 0.00 0.00 51 1016.2
20260905173807 32 144 9.7 11.3 0.00 0.00 0.00 52 1016.3
20260905173303 32 170 8.0 11.3 0.00 0.00 0.00 55 1016.2
20260905172803 32 76 14.5 17.7 0.00 0.00 0.00 54 1016.2
20260905172301 32 110 3.2 6.4 0.00 0.00 0.00 56 1016.5
20260905171757 32 158 6.4 11.3 0.00 0.00 0.00 55 1016.6
20260905171253 31 147 8.0 9.7 0.00 0.00 0.00 58 1016.7
20260905170750 32 68 3.2 4.8 0.00 0.00 0.00 58 1016.6
20260905170245 32 214 8.0 12.9 0.00 0.00 0.00 56 1016.8
20260905165744 31 125 6.4 11.3 0.00 0.00 0.00 60 1016.8
20260905165240 32 120 11.3 14.5 0.00 0.00 0.00 59 1016.7
20260905164734 31 192 8.0 9.7 0.00 0.00 0.00 62 1016.9
20260905164229 31 103 6.4 11.3 0.00 0.00 0.00 63 1016.7
20260905163725 31 162 9.7 11.3 0.00 0.00 0.00 65 1016.9
20260905163221 31 97 6.4 9.7 0.00 0.00 0.00 63 1017.0
20260905162717 31 209 9.7 12.9 0.00 0.00 0.00 65 1016.8
20260905162216 31 183 3.2 4.8 0.00 0.00 0.00 66 1016.9
20260905161711 31 120 9.7 12.9 0.00 0.00 0.00 65 1016.6
20260905161209 31 141 6.4 6.4 0.00 0.00 0.00 67 1016.8
20260905160708 31 128 3.2 3.2 0.00 0.00 0.00 67 1016.8
20260905160202 31 187 1.6 1.6 0.00 0.00 0.00 68 1016.8
20260905155701 30 167 8.0 11.3 0.00 0.00 0.00 69 1016.8
20260905155201 30 187 12.9 14.5 0.00 0.00 0.00 69 1016.8